Showing default

HELLAS-SAT 3, 42814

Orbit data source: Space-Track

HELLAS-SAT 3, 42814 is a payload satellite owned by HellasSat (ESA) in GEO that was launched on Wed, 28 Jun 2017 UTC via an ARIANE 5ECA launch vehicle from the French Guiana (FRGUI). Payload-class satellites include a variety of spacecraft equipped with specific instruments for various scientific and technological missions. These include communications satellites like Starlink; space stations such as the ISS; scientific satellites like the Hubble; Earth observation satellites from companies like Planet Labs, Umbra, and HawkEye 360; GPS; miniature CubeSats for education and research; and military/defense satellites.

Not visible in the next 10 days
Identifier
42814, 2017-040A
Orbit
GEO
Country
Flag of ESAESA
Related business
Manufacturer
Thales Alenia
Mission
Operational Commercial Communications
Bus & Motor
SPACEBUS 4000C4, S400
Mass
5,780 kg wet, ~2,500 kg dry
Launch date (UTC)
2017-06-28 (8 years ago)
Launch vehicle
ARIANE 5ECA
Launch site
French Guiana (FRGUI)
Object type
Payload
Rocket body
Debris
Shape & HBR
Box + 2 Pan, 18.5 m
Radar Cross Section
31.794 m², Large (>1 m²)

Expand to show TLE details & history
Last TLE update: 18 hours ago

TLE from 18 hours ago
0 HELLAS-SAT 3
1 42814U 17040A   25303.19237110  .00000162  00000-0  00000-0 0  9997
2 42814   0.0502  54.1648 0000305 172.0320 280.8619  1.00268894 30509
Epoch: 2025-10-30T04:37Z
TLE epoch observation values (Epoch: 2025-10-30T04:37:00.863Z)
Latitude
0.03144°
Longitude
39.0113°
Altitude
35,786.648 km
Speed
3.075 km/s
True Right ascension
09h 48m 04s
True Declination
0° 01' 53"
Sunlit
Object was in daylight at epoch
Visualization orbit readout
Latitude
Unknown
Longitude
Unknown
Altitude
Unknown
Speed
Unknown
Apparent Right ascension
Unknown
Apparent Declination
Unknown
Sunlit
N/A
Visualization observer readout
Local Sidereal Time
18:19:15
Azimuth
Unknown
Elevation
Unknown
Doppler factor
Unknown
Orbital elements
Apogee altitude
35,789.762 km
Perigee altitude
35,787.19 km
Semi-major axis
42,166.613 km
Eccentricity
0.00003
Inclination
0.0502°
RAAN
54.1648°
Arg. of periapsis
172.032°
True anomaly
280.85847°
Mean anomaly
280.8619°
Eccentric anomaly
280.86018°
Mean motion
0.25066 °/min
Orbital period
1,436.19 mins
BSTAR
0
Loading maneuver chart data...
Computing Atmospheric mass density...
Loading historical data...
Loading historical data...
Loading historical data...
Loading historical data...
Loading historical data...
Loading historical data...
Loading historical data...
Other satellites on launch #40 in the year 2017 (2017-06-28 UTC)

Documentation

Showing up to 5 results
|